Find Starlink 5553

NORAD ID: 56333 Int'l Des: 2023-058 Owner: SPXS Country: US Constellation: starlink operational
LEOCIRCULARRETROGRADESSO

現在のビュー

3D地球を読み込み中...

About Starlink 5553

Starlink 5553 (NORAD 56333) is a starlink constellation satellite (v1.5) launched Apr 27, 2023 by SPXS of US. It operates in LEO, CIRCULAR, RETROGRADE, SSO orbit with a mass of 300.00 kg.

Starlink 5553について

説明を読み込み中...

次回通過

Passes for default location (London). Set your location on the main map for personalized predictions.

高度履歴

Loading altitude history...

軌道要素

1 56333U 23058S 26171.43069860 .00017162 00000-0 11928-2 0 9991
2 56333 97.3349 171.3560 0002178 82.0273 278.1202 15.05577094173657
Epoch: Jun 20, 2026 • Age: 30 hours

現在のステータス

高度 557.1 km
速度 7.58 km/s
衛星直下点 -16.75°S, 158.32°W
打ち上げ日 Apr 27, 2023
運用期間 3.1 years
タイプ internet

技術仕様

分類 Payload
質量 300.00 kg
乾燥質量 260.00 kg
総質量 300.00 kg
長さ 0.20 m
直径 2.80 m
スパン 9.00 m
形状 Box + pan
製造者 SPXS
バスタイプ Starlink
フェーズステータス In Orbit
所有者/国 SPXS/US

Most Searched